www.pogodaiklimat.ru

Погода и климат >> Архив погоды >> Самоа >> Станция Le Piu Tai


ПОГОДА на Станции Le Piu Tai

  • Прогноз погоды на Станции Le Piu Tai
  • Монитор погоды на Станции Le Piu Tai

АРХИВ ПОГОДЫ на Станции Le Piu Tai

Время (UTC), дата Ветер
(напр.,м/с)
 
Видим.   Явления Облачность Т
(С)
Тd
(С)
f
(%)
Тe
(С)
Тes
(С)
Комфортность P
(гПа)
Po
(гПа)
Тmin
(С)
Tmax
(С)
R
(мм)
R24
(мм)
S
(см)
12 17.01 штиль 0 н/о н/о +26.6 +26.8 100 +41 +41 опасность
перегрева
1006.2 992.5 +33.6
15 17.01 ЮВ 1 н/о н/о +26.0 +26.2 100 +39 +39 очень
душно
1004.7 991.0 +1.8
18 17.01 ЮВ 1 н/о н/о +27.1 +27.3 100 +43 +43 опасность
перегрева
1006.2 992.5
21 17.01 ЮВ 1 н/о н/о +30.1 +30.3 100 +56 +56 опасность
перегрева
1007.0 993.4
00 18.01 В 2 н/о н/о +31.5 +30.0 92 +58 +58 опасность
перегрева
1005.7 992.2 +24.2
03 18.01 СВ 2 н/о н/о +30.3 +28.6 91 +52 +52 опасность
перегрева
1004.2 990.7
06 18.01 В 1 н/о н/о +27.4 +27.6 100 +44 +44 опасность
перегрева
1005.4 991.7
09 18.01 ЮВ 1 н/о н/о +26.0 +26.2 100 +39 +39 очень
душно
1007.0 993.3
12 18.01 ЮВ 1 н/о н/о +26.7 +26.9 100 +41 +41 опасность
перегрева
1006.5 992.8 +32.7
15 18.01 ЮВ 1 н/о н/о +26.1 +26.3 100 +39 +39 очень
душно
1005.2 991.5
18 18.01 ЮВ 1 н/о н/о +26.0 +26.2 100 +39 +39 очень
душно
1006.4 992.7
21 18.01 В 2 н/о н/о +30.5 +30.7 100 +58 +58 опасность
перегрева
1007.4 993.8
00 19.01 СВ 2 н/о н/о +31.1 +31.3 100 +61 +61 опасность
перегрева
1006.4 992.9 +25.6
03 19.01 В 1 н/о н/о +28.6 +28.8 100 +49 +49 опасность
перегрева
1004.9 991.3
06 19.01 ЮВ 1 н/о н/о +25.4 +25.6 100 +37 +37 очень
душно
1006.6 992.8 3
09 19.01 ЮВ 1 н/о н/о +25.4 +25.6 100 +37 +37 очень
душно
1007.9 994.1 2
12 19.01 ЮВ 1 н/о н/о +26.0 +26.2 100 +39 +39 очень
душно
1006.9 993.2 +31.7
15 19.01 ЮВ 1 н/о н/о +25.8 +26.0 100 +38 +38 очень
душно
1005.4 991.7
18 19.01 В 1 н/о н/о +26.4 +26.6 100 +40 +40 очень
душно
1006.2 992.5
21 19.01 В 2 н/о н/о +30.8 +31.0 100 +60 +60 опасность
перегрева
1006.8 993.3
00 20.01 СВ 2 н/о н/о +31.1 +30.9 99 +61 +61 опасность
перегрева
1006.3 992.8 +24.7
03 20.01 В 2 н/о н/о +30.9 +29.0 90 +54 +54 опасность
перегрева
1005.2 991.7
06 20.01 ЮВ 1 н/о н/о +27.7 +27.9 100 +45 +45 опасность
перегрева
1006.8 993.1
09 20.01 ЮВ 1 н/о н/о +27.2 +27.4 100 +43 +43 опасность
перегрева
1007.8 994.1
12 20.01 ЮВ 1 н/о н/о +26.6 +26.8 100 +41 +41 опасность
перегрева
1006.3 992.6 +31.6
15 20.01 ЮВ 1 н/о н/о +26.6 +26.8 100 +41 +41 опасность
перегрева
1004.6 990.9
18 20.01 В 2 н/о н/о +27.2 +27.4 100 +43 +43 опасность
перегрева
1005.9 992.2
21 20.01 В 2 н/о н/о +29.4 +29.6 100 +53 +53 опасность
перегрева
1007.3 993.7
00 21.01 В 2 н/о н/о +28.3 +28.5 100 +48 +48 опасность
перегрева
1005.9 992.3 +25.6 4
03 21.01 ЮВ 1 н/о н/о +27.3 +27.5 100 +43 +43 опасность
перегрева
1005.1 991.4 0.5
06 21.01 ЮЗ 1 н/о н/о +26.6 +26.8 100 +41 +41 опасность
перегрева
1004.6 990.9
09 21.01 штиль 0 н/о н/о +26.5 +26.7 100 +40 +40 очень
душно
1005.8 992.1
12 21.01 штиль 0 н/о н/о +26.1 +26.3 100 +39 +39 очень
душно
1005.9 992.2 +32.2
15 21.01 штиль 0 н/о н/о +25.1 +25.3 100 +36 +36 очень
душно
1005.0 991.2
18 21.01 штиль 0 н/о н/о +25.1 +25.3 100 +36 +36 очень
душно
1006.4 992.6
21 21.01 штиль 0 н/о н/о +28.7 +28.9 100 +49 +49 опасность
перегрева
1007.0 993.4
03 22.01 штиль 0 н/о н/о +29.3 +29.5 100 +52 +52 опасность
перегрева
1003.6 990.0
06 22.01 штиль 0 н/о н/о +27.5 +27.7 100 +44 +44 опасность
перегрева
1003.9 990.3
09 22.01 штиль 0 н/о н/о +26.5 +26.7 100 +40 +40 очень
душно
1005.3 991.6
12 22.01 0 н/о
15 22.01 Ю 1 н/о н/о +24.8 +25.0 100 +35 +35 очень
душно
1003.7 989.9
18 22.01 штиль 0 н/о н/о +25.1 +25.3 100 +36 +36 очень
душно
1004.8 991.0
21 22.01 штиль 0 н/о н/о +31.2 +31.4 100 +62 +62 опасность
перегрева
1004.9 991.4
00 23.01 штиль 0 н/о н/о +31.8 +30.7 94 +61 +61 опасность
перегрева
1003.9 990.5 +24.6
03 23.01 штиль 0 н/о н/о +31.4 +29.3 89 +56 +56 опасность
перегрева
1003.0 989.5
06 23.01 штиль 0 н/о н/о +27.4 +27.6 100 +44 +44 опасность
перегрева
1003.6 990.0
09 23.01 штиль 0 н/о н/о +25.5 +25.7 100 +37 +37 очень
душно
1005.7 991.9
12 23.01 0 н/о
15 23.01 штиль 0 н/о н/о +24.7 +24.9 100 +35 +35 очень
душно
1004.3 990.5
18 23.01 штиль 0 н/о н/о +25.3 +25.5 100 +36 +36 очень
душно
1005.2 991.4
21 23.01 штиль 0 н/о н/о +31.7 +30.8 95 +61 +61 опасность
перегрева
1005.7 992.2
00 24.01 штиль 0 н/о н/о +32.7 +31.0 91 +63 +63 опасность
перегрева
1004.2 990.8 +24.5
03 24.01 штиль 0 н/о н/о +31.6 +28.9 86 +55 +55 опасность
перегрева
1003.4 990.0
06 24.01 штиль 0 н/о н/о +27.9 +28.1 100 +46 +46 опасность
перегрева
1004.8 991.2
09 24.01 ЮВ 1 н/о н/о +27.6 +27.2 98 +44 +44 опасность
перегрева
1006.8 993.1

 

Местоположение метеостанции Станция Le Piu Tai (Самоа): широта -13.46 долгота -172.39 высота над уровнем моря 121 м.

В архиве по умолчанию представлена погода на Станции Le Piu Tai за последнюю неделю. Архивные данные за месяц целиком и за предыдущие месяцы, начиная с января 2011 года, Вы можете получить, выбрав интересующий диапазон дат из раскрывающегося списка и нажав кнопку "Ввод!".


*Определитесь, кто Вы:
робот инопланетянин человек

Внимание! Время в таблицах - всемирное. Для получения местного времени необходимо прибавить поправку, которая равна 13 ч.

Смотрите также архив погоды в соседних городах и на ближайших метеорологических станциях:

Погода в Аэропорту Маота (Самоа) (34 км)
Погода на Станции Mount Talu (Самоа) (36 км)
Погода на Острове Маноно (Самоа) (53 км)
Погода Фалеоло (Американское Самоа) (57 км)
Погода в Аэропорту Фалеоло (Самоа) (57 км)
Погода на Фалеоло восток (Самоа) (60 км)
Погода Апиа (Американское Самоа) (84 км)
Погода на Станции Togitogiga (Самоа) (92 км)
Погода в Луфилуфи (Самоа) (101 км)
Погода на Станции Le Mafa (Самоа) (102 км)

Пояснения к столбцам:

Ветер - указаны скорость ветра в м/с - средняя за 10 мин, порывы в срок и между сроками (в фигурных скобках) и направление, откуда дует ветер: С - северный, СВ - северо-восточный, В - восточный, ЮВ - юго-восточный, Ю - южный, ЮЗ - юго-западный, З - западный, СЗ - северо-западный.
Видимость - горизонтальная дальность видимости в метрах или километрах. При видимости от 1 до 10 км при отсутствии осадков обычно наблюдается дымка, при ухудшении видимости до 1 км и менее - туман. В сухую погоду видимость может ухудшаться дымом, пылью или мглою.
Явления - указаны атмосферные явления, наблюдавшиеся в срок или в последний час перед сроком; фигурными скобками обозначены явления, наблюдавшиеся между сроками (за 1-3 часа до срока); квадратными скобками обозначены град или гололедные отложения с указанием их диаметра в мм.
Облачность - указаны через наклонную черту общая и нижняя облачность в баллах и высота нижней границы облаков в метрах; квадратными скобками обозначены формы облаков: Ci - перистые, Cs - перисто-слоистые, Cc - перисто-кучевые, Ac - высококучевые, As - высокослоистые, Sc - слоисто-кучевые, Ns - слоисто-дождевые, Cu - кучевые, Cb - кучево-дождевые. Подробнее классификацию облаков см. в Атласе облаков (PDF).
T - Температура воздуха - температура, измеренная на высоте 2 м над землей.
Td - Температура точки росы - температура, при понижении до которой содержащийся в воздухе водяной пар достигнет насыщения.
f - Относительная влажность воздуха - влажноcть воздуха, измеренная на высоте 2 м над землей.
Te - Эффективная температура - температура, которую ощущает одетый по сезону человек в тени. Характеристика душности погоды. При расчете учитывается влияние влажности воздуха и скорости ветра на теплоощущения человека.
Tes - Эффективная температура на солнце - температура, которую ощущает человек, с поправкой на солнечный нагрев. Характеристика знойности погоды. Зависит от высоты солнца над горизонтом, облачности и скорости ветра. Ночью, в пасмурную погоду, а также при ветре 12 м/с и более поправка равна нулю.
P - Атмосферное давление - приведенное к уровню моря атмосферное давление.
Po - Атмосферное давление - измеренное на уровне метеостанции атмосферное давление.
Tmin - Минимальная температура - минимум температуры воздуха на высоте 2 м над землей.
Tmax - Максимальная температура - максимум температуры воздуха на высоте 2 м над землей.
R - Количество осадков - Количество выпавших осадков за период времени, мм. При наведении курсора мыши на число - период времени, за который выпало указанное количество осадков.
R24 - Количество осадков - Количество выпавших осадков за 24 часа, мм.
S - Снежный покров - Высота снежного покрова, см. При наведении курсора мыши на число - состояние снежного покрова и степень покрытия местности в баллах.